Weather reports worldwide

Advertisment
Ivalo, Finland (2807): temperature & dewpoint: 16.08.2019 21:00:00 - 22.08.2019 21:00:00 (EEST)Ivalo, Finland (2807): wind speed: 16.08.2019 21:00:00 - 22.08.2019 21:00:00 (EEST)Ivalo, Finland (2807): wind direction: 16.08.2019 21:00:00 - 22.08.2019 21:00:00 (EEST)Ivalo, Finland (2807): reduced air pressure: 16.08.2019 21:00:00 - 22.08.2019 21:00:00 (EEST)Ivalo, Finland (2807): visibility: 16.08.2019 21:00:00 - 22.08.2019 21:00:00 (EEST)
Date & Time tt [°C] td [°C] ff [km/h] ff [kn] dd ppp [hPa] vv [km]
22.08.2019 21:00:00 11,5 10,1 8 4 N 1015,8 10
22.08.2019 20:00:00 13,0 10,5 4 2 - 1015,1 10
22.08.2019 19:00:00 12,8 10,6 8 4 N 1015,0 10
22.08.2019 18:00:00 13,9 11,3 13 7 N 1014,3 10
22.08.2019 17:00:00 12,4 10,8 8 4 W 1014,4 10
22.08.2019 16:00:00 13,5 8,9 18 10 NW 1013,9 10
22.08.2019 15:00:00 15,1 11,0 11 6 N 1013,3 10
22.08.2019 14:00:00 15,4 10,1 5 3 - 1013,3 10
22.08.2019 13:00:00 14,1 9,8 8 4 SW 1013,7 10
22.08.2019 12:00:00 13,4 9,8 11 6 SSW 1013,8 10
22.08.2019 11:00:00 11,9 9,8 15 8 SSW 1013,7 10
22.08.2019 10:00:00 11,5 10,0 13 7 WSW 1013,7 10
22.08.2019 09:00:00 10,9 10,0 16 9 WSW 1013,4 10
22.08.2019 08:00:00 10,5 10,1 11 6 WSW 1013,2 10
22.08.2019 07:00:00 9,9 9,7 11 6 SSW 1013,3 10
22.08.2019 06:00:00 10,0 9,8 9 5 SW 1013,3 10
22.08.2019 05:00:00 9,5 9,4 5 3 WSW 1013,2 10
22.08.2019 04:00:00 7,5 7,5 2 1 - 1013,4 10
22.08.2019 03:00:00 8,7 8,6 4 2 - 1013,4 10
22.08.2019 02:00:00 10,0 9,4 5 3 WSW 1013,2 10
22.08.2019 01:00:00 10,5 10,0 2 1 - 1013,2 10
22.08.2019 00:00:00 11,9 11,4 2 1 - 1012,8 10
21.08.2019 23:00:00 11,9 11,1 9 5 WSW 1013,1 10
21.08.2019 22:00:00 11,8 10,4 9 5 SSE 1013,0 10
21.08.2019 21:00:00 14,5 11,1 8 4 S 1013,1 10
21.08.2019 20:00:00 15,3 10,8 11 6 SSW 1013,1 10
21.08.2019 19:00:00 16,1 10,6 11 6 S 1012,8 10
21.08.2019 18:00:00 16,1 9,4 15 8 SSW 1012,9 10
21.08.2019 17:00:00 15,8 9,5 11 6 S 1013,0 10
21.08.2019 16:00:00 15,3 10,4 16 9 SSW 1013,3 10
21.08.2019 15:00:00 15,4 11,8 18 10 SW 1013,5 10
21.08.2019 14:00:00 15,9 11,0 13 7 SW 1012,8 10
21.08.2019 13:00:00 16,0 11,4 15 8 SSW 1013,0 10
21.08.2019 12:00:00 16,2 10,9 15 8 SW 1012,9 10
21.08.2019 11:00:00 14,9 11,2 15 8 SW 1012,8 10
21.08.2019 10:00:00 14,8 10,8 21 11 SW 1012,7 10
21.08.2019 09:00:00 14,2 11,7 15 8 SSW 1012,5 10
21.08.2019 08:00:00 13,0 11,5 4 2 - 1012,5 10
21.08.2019 07:00:00 12,3 11,1 8 4 SW 1012,3 10
21.08.2019 06:00:00 11,6 10,6 5 3 SW 1012,3 10
21.08.2019 05:00:00 10,8 10,2 4 2 - 1012,0 10
21.08.2019 04:00:00 10,0 9,5 2 1 - 1011,9 10
21.08.2019 03:00:00 10,3 9,3 2 1 - 1011,2 10
21.08.2019 02:00:00 11,9 10,0 9 5 WSW 1010,8 10
21.08.2019 01:00:00 12,8 10,1 11 6 SSW 1010,5 10
21.08.2019 00:00:00 12,9 10,5 11 6 SW 1010,5 10
20.08.2019 23:00:00 12,7 10,8 8 4 SW 1010,0 10
20.08.2019 22:00:00 12,7 10,5 9 5 WSW 1009,7 10
20.08.2019 21:00:00 13,9 10,2 11 6 SSW 1009,3 10
20.08.2019 20:00:00 14,3 10,6 15 8 SSW 1008,8 10
20.08.2019 19:00:00 14,7 10,5 4 2 - 1008,4 10
20.08.2019 18:00:00 15,1 10,0 9 5 SW 1007,7 10
20.08.2019 17:00:00 16,1 12,4 4 2 - 1006,7 10
20.08.2019 16:00:00 15,7 11,4 18 10 S 1006,2 10
20.08.2019 15:00:00 18,7 10,8 15 8 S 1005,9 10
20.08.2019 14:00:00 16,9 11,3 21 11 SSW 1005,7 10
20.08.2019 13:00:00 17,8 10,5 26 14 SW 1005,0 10
20.08.2019 12:00:00 17,3 11,0 26 14 SSW 1004,7 10
20.08.2019 11:00:00 16,8 11,3 22 12 SSW 1004,4 10
20.08.2019 10:00:00 15,8 11,4 24 13 SSW 1004,0 10
20.08.2019 09:00:00 15,6 11,4 28 15 SSW 1003,4 10
20.08.2019 08:00:00 15,0 11,3 24 13 SSW 1003,0 10
20.08.2019 07:00:00 14,4 11,3 21 11 S 1002,5 10
20.08.2019 06:00:00 14,3 11,0 24 13 SSW 1002,0 10
20.08.2019 05:00:00 14,2 11,0 18 10 S 1002,0 10
20.08.2019 04:00:00 14,1 10,8 24 13 S 1001,5 10
20.08.2019 03:00:00 14,3 10,8 22 12 S 1001,2 10
20.08.2019 02:00:00 14,4 11,2 24 13 S 1001,3 10
20.08.2019 01:00:00 14,7 11,8 24 13 S 1001,0 10
20.08.2019 00:00:00 14,9 12,9 21 11 S 1000,9 10
19.08.2019 23:00:00 15,0 13,0 13 7 SSE 1000,7 10
19.08.2019 22:00:00 15,3 12,7 18 10 S 1000,9 10
19.08.2019 21:00:00 14,7 12,9 18 10 SSE 1001,4 10
19.08.2019 20:00:00 14,8 12,4 18 10 SE 1001,7 10
19.08.2019 19:00:00 15,0 11,6 21 11 SSE 1002,3 10
19.08.2019 18:00:00 15,8 10,9 13 7 S 1003,5 10
19.08.2019 17:00:00 18,5 8,6 24 13 SSE 1003,2 10
19.08.2019 16:00:00 19,4 8,5 16 9 SSE 1003,4 10
19.08.2019 15:00:00 19,8 7,9 21 11 SSE 1003,9 10
19.08.2019 14:00:00 20,0 8,2 18 10 S 1004,4 10
19.08.2019 13:00:00 19,9 7,6 22 12 SSE 1005,0 10
19.08.2019 12:00:00 20,0 8,0 18 10 S 1005,6 10
19.08.2019 11:00:00 18,0 8,1 11 6 SSE 1006,6 10
19.08.2019 10:00:00 16,0 8,6 15 8 SE 1007,4 10
19.08.2019 09:00:00 16,0 8,8 9 5 SE 1007,7 10
19.08.2019 08:00:00 15,5 9,7 8 4 - 1007,7 10
19.08.2019 07:00:00 14,6 11,7 11 6 SE 1008,2 10
19.08.2019 06:00:00 14,5 11,6 9 5 SSE 1008,2 10
19.08.2019 05:00:00 14,7 11,9 11 6 S 1008,7 10
19.08.2019 04:00:00 15,2 12,0 15 8 S 1008,9 10
19.08.2019 03:00:00 15,2 12,0 16 9 S 1008,9 10
19.08.2019 02:00:00 15,2 12,1 11 6 S 1009,0 10
19.08.2019 01:00:00 15,5 12,4 11 6 S 1009,1 10
19.08.2019 00:00:00 15,4 12,6 11 6 SSE 1009,2 10
18.08.2019 23:00:00 15,6 12,3 15 8 - 1009,1 10
18.08.2019 22:00:00 16,2 12,0 16 9 SSW 1008,9 10
18.08.2019 21:00:00 17,0 12,1 11 6 S 1008,9 10
18.08.2019 20:00:00 16,0 13,6 15 8 S 1008,9 10
18.08.2019 19:00:00 17,5 13,3 26 14 S 1008,4 10
18.08.2019 18:00:00 18,4 12,0 26 14 S 1007,9 10
18.08.2019 17:00:00 19,5 10,3 24 13 SSW 1007,6 10
18.08.2019 16:00:00 20,3 9,9 29 16 SSW 1007,3 10
18.08.2019 15:00:00 19,9 10,8 28 15 SSW 1007,5 10
18.08.2019 14:00:00 19,6 10,8 31 17 SSW 1007,5 10
18.08.2019 13:00:00 19,2 10,6 28 15 SSW 1007,3 10
18.08.2019 12:00:00 18,6 11,0 29 16 SSW 1007,4 10
18.08.2019 11:00:00 18,0 10,7 34 18 SSW 1007,1 10
18.08.2019 10:00:00 16,6 11,0 26 14 S 1007,2 10
18.08.2019 09:00:00 16,0 11,6 18 10 SSW 1007,4 10
18.08.2019 08:00:00 15,8 11,9 16 9 S 1007,6 10
18.08.2019 07:00:00 15,5 12,1 16 9 S 1007,6 10
18.08.2019 06:00:00 15,3 12,7 18 10 S 1007,6 10
18.08.2019 05:00:00 15,5 13,2 15 8 S 1007,4 10
18.08.2019 04:00:00 15,1 12,9 8 4 S 1007,7 10
18.08.2019 03:00:00 14,5 12,8 11 6 SSW 1008,2 10
18.08.2019 02:00:00 15,0 12,7 11 6 S 1008,3 10
18.08.2019 01:00:00 14,4 12,4 8 4 S 1008,4 10
18.08.2019 00:00:00 14,2 12,1 11 6 S 1008,3 10
17.08.2019 23:00:00 14,5 12,2 11 6 S 1008,3 10
17.08.2019 22:00:00 15,2 12,8 8 4 S 1008,4 10
17.08.2019 21:00:00 15,3 12,7 11 6 SSW 1008,5 10
17.08.2019 20:00:00 15,4 13,0 9 5 S 1008,3 10
17.08.2019 19:00:00 14,9 13,4 15 8 S 1008,3 10
17.08.2019 18:00:00 16,4 12,9 15 8 SSW 1008,1 10
17.08.2019 17:00:00 16,2 12,6 21 11 SSW 1008,3 10
17.08.2019 16:00:00 15,5 12,5 11 6 S 1008,4 10
17.08.2019 15:00:00 15,0 12,4 15 8 S 1008,5 10
17.08.2019 14:00:00 14,8 12,3 15 8 SSW 1008,5 10
17.08.2019 13:00:00 14,4 12,3 13 7 S 1008,2 10
17.08.2019 12:00:00 14,3 11,8 15 8 SSW 1008,0 10
17.08.2019 11:00:00 13,7 11,8 15 8 S 1007,7 10
17.08.2019 10:00:00 12,8 11,1 21 11 SSW 1007,7 10
17.08.2019 09:00:00 12,6 10,3 18 10 SSW 1007,4 10
17.08.2019 08:00:00 12,5 9,8 15 8 SSW 1007,4 10
17.08.2019 07:00:00 12,3 9,8 18 10 SSW 1007,1 10
17.08.2019 06:00:00 12,1 10,0 11 6 S 1007,1 10
17.08.2019 05:00:00 12,1 10,1 8 4 S 1007,4 10
17.08.2019 04:00:00 12,0 9,9 13 7 SSW 1007,7 10
17.08.2019 03:00:00 11,4 9,2 9 5 SSW 1008,2 10
17.08.2019 02:00:00 10,6 8,9 8 4 S 1008,5 10
17.08.2019 01:00:00 11,0 8,7 9 5 S 1008,7 10
17.08.2019 00:00:00 12,0 8,8 8 4 S 1008,6 10
16.08.2019 23:00:00 12,4 8,6 11 6 SSW 1008,9 10
16.08.2019 22:00:00 13,5 8,5 15 8 SSW 1008,7 10
16.08.2019 21:00:00 14,2 8,7 11 6 S 1008,6 10

tt = temperature
td = dewpoint
ff = wind speed
dd = wind direction
ppp = reduced air pressure
vv = visibility

Next stations